Regional Weather Roundup
Issued by NWS Wilmington, NC

Home | Current Version | Previous Version | Text Only | Print | Product List | Glossary On
Versions: 1 2 3 4 5 6 7 8 9 10 11 12 13 14 15 16 17 18 19 20 21 22 23 24 25 26 27 28 29 30 31 32 33 34 35 36 37 38 39 40 41 42 43 44 45 46 47 48 49 50
000
ASUS42 KILM 042313
RWRILM
RWRILM
REGIONAL HOURLY WEATHER ROUNDUP
NATIONAL WEATHER SERVICE WILMINGTON NC
700 PM EDT FRI SEP 04 2015

NOTE: "FAIR" INDICATES FEW OR NO CLOUDS BELOW 12,000 FEET WITH NO
SIGNIFICANT WEATHER AND/OR OBSTRUCTIONS TO VISIBILITY.

...............WFO WILMINGTON COUNTY WARNING AREA...............

......COASTAL NC AND SC COUNTIES......

CITY           SKY/WX    TMP DP  RH WIND       PRES   REMARKS
WILMINGTON     CLEAR     84  68  58 S3        29.95R
N MYRTLE BEACH CLEAR     83  75  77 SE6       29.95F HX  90
MYRTLE BEACH   CLEAR     82  72  69 S7        29.97F

......INLAND NC AND SC COUNTIES.......

CITY           SKY/WX    TMP DP  RH WIND       PRES   REMARKS
LUMBERTON      PTCLDY    89  69  51 NE3       29.95R HX  93
ELIZABETHTOWN  PTCLDY    85  72  63 CALM      29.96S HX  91
WHITEVILLE     CLEAR     86  74  68 S3        29.96R HX  94
FLORENCE       PTCLDY    86  74  67 CALM      29.95R HX  94
DARLINGTON     PTCLDY    90  70  51 NE6       29.97R HX  95

....................REST OF NORTH CAROLINA......................

.........EASTERN NC.........

CITY           SKY/WX    TMP DP  RH WIND       PRES   REMARKS
CAPE HATTERAS  PTCLDY    80  73  79 NE8       29.96R
JACKSONVILLE   PTCLDY    84  70  61 N5        29.96R
MOREHEAD CITY  PTCLDY    82  75  79 W5        29.95R
KENANSVILLE      N/A     80  67  63 NW5       30.00R
NEW BERN       MOCLDY    82  71  69 CALM      29.97S
ELIZABETH CITY MOCLDY    79  72  79 NE10      30.00S

.........CENTRAL NC.........

CITY           SKY/WX    TMP DP  RH WIND       PRES   REMARKS
RALEIGH DURHAM CLOUDY    79  70  74 NE6       30.00S
ROCKY MOUNT    LGT RAIN  75  66  73 NE3       30.00S
ROANOKE RAPIDS NOT AVBL
FAYETTEVILLE   PTCLDY    82  65  56 NE10      29.98R
HOFFMAN        LGT RAIN  79  70  73 E5        29.99R

.........WESTERN NC.........

CITY           SKY/WX    TMP DP  RH WIND       PRES   REMARKS
CHARLOTTE      MOCLDY    88  64  44 E6        30.00R
GREENSBORO     CLOUDY    78  69  73 N5        30.04S THUNDER
HICKORY        NOT AVBL
BOONE          NOT AVBL
ASHEVILLE      NOT AVBL

.....................REST OF SOUTH CAROLINA.....................

.........EASTERN SC.........

CITY           SKY/WX    TMP DP  RH WIND       PRES   REMARKS
CHARLESTON     MOCLDY    78  69  73 CALM      29.96R
BEAUFORT MCAS  CLOUDY    77  71  82 CALM      29.95F
HILTON HEAD    MOCLDY    79  70  73 NW6       29.96F

.........CENTRAL SC.........

CITY           SKY/WX    TMP DP  RH WIND       PRES   REMARKS
COLUMBIA       PTCLDY    91  67  44 SE7       29.94R HX  94
ORANGEBURG     PTCLDY    85  72  65 S12G18    29.96R HX  91
SUMTER SHAW    PTCLDY    91  67  45 E8        29.94R HX  94

.........WESTERN SC.........

CITY           SKY/WX    TMP DP  RH WIND       PRES   REMARKS
GREENVILLE     NOT AVBL
ROCK HILL      PTCLDY    84  69  60 VRB3      29.99R
ANDERSON       MOSUNNY   89  69  51 SW7       29.97R HX  93
CLEMSON        NOT AVBL
GREENWOOD      CLEAR     86  65  49 SE5       29.99R


...................COASTAL AND OFFSHORE REPORTS..................

................LOCAL PIERS AND NC RESERVE................


STATION/POSITION TIME  SKY/WX   TEMP    WIND        PRES    VSBY
                                AIR SEA DIR/SP/G
                 (UTC)          (F)     (DEG/KT/KT) (MB)    (MI)
JOHNY MRCER PIER 2200            84 85  170/  6/  7 1013.8R
NC RESRV MASNBRO NOT AVBL
OCEAN CREST PIER NOT AVBL
SPRINGMAID  PIER 2200            83 85  120/  7/  7 1014.5R


................COASTAL AND OFFSHORE BUOYS................


STATION/POSITION TIME  SKY/WX   TEMP    WIND        PRES    VSBY
                                AIR SEA DIR/SP/G
                 (UTC)          (F)     (DEG/KT/KT) (MB)    (MI)
DIMNDSHOAL 41025 2250            81 84   20/ 12/ 14 1014.2R
WVE H/P(F/S)=  1/10 WND WVE H/P(F/S)=  2/ 4 SWL H/P/D(F/S/D)=  2/300/10

CAPE LOOKOUT     2300            83     260/  2/  2 1013.9R
ONSLOW BAY 41036 NOT AVBL
ONSLOW BAY 41064 2208            83 84  180/  2/  4 1014.3R
ONSLOW BAY 41159 2225               84                N/A
WVE H/P(F/S)=  1/11 WND WVE H/P(F/S)=  2/ 9

5SE WRITBC 41038 2208            84 83  180/  6/  8 1014.2R
MASNBO INL 41110 NOT AVBL
WILM HARBR 41108 2211               84                N/A
WVE H/P(F/S)=  1/13 WND WVE H/P(F/S)=  2/ 5

27SE WRITB 41037 2200            81 84  170/  2/  2   N/A
FRYING PAN 41013 2250            83 83   80/  4/  4 1014.7S
WVE H/P(F/S)=  1/12

SUNST NRSH 41024 2208            83     150/  6/  8 1014.3R
CAPRS NRSH 41029 2208            83     130/  6/  6 1014.5R
EDISTO     41004 2250            83 85   50/  2/  4 1014.2R
WVE H/P(F/S)=  1/ 8 SWL H/P/D(F/S/D)=  2/ 8



..........OFFSHORE BUOYS BEYOND 100 NM OFFSHORE...........
.....IN A TRIANGLE---HAT TO BERMUDA TO BAHAMAS TO HAT.....


STATION/POSITION TIME  SKY/WX   TEMP    WIND        PRES    VSBY
                                AIR SEA DIR/SP/G
                 (UTC)          (F)     (DEG/KT/KT) (MB)    (MI)
150E HAT   41001 2300            82 83   80/  4/  4 1013.5S
W BERMUDA  41048 2250            82 84  360/  8/ 10 1012.7F
WVE H/P(F/S)=  2/ 9 WND WVE H/P(F/S)=  2/ 4 SWL H/P/D(F/S/D)=  2/ 60/ 9

ATLANTIC S 41049 2250            78 85  260/ 12/ 14 1014.7F
WVE H/P(F/S)=  4/ 5 WND WVE H/P(F/S)=  3/ 5 SWL H/P/D(F/S/D)=  3/ 10/10

E BAHAMAS  41046 2250            85 87  260/  2/  4 1015.1R
WVE H/P(F/S)=  2/ 8 SWL H/P/D(F/S/D)=  2/120/ 8

NE BAHAMAS 41047 2250            84 86  290/  6/  8 1013.0R
WVE H/P(F/S)=  2/ 8 WND WVE H/P(F/S)=  2/ 3 SWL H/P/D(F/S/D)=  2/110/ 8

120E CANVRL41010 2220            84 86   10/  6/  8 1013.3F

END



USA.gov is the U.S. government's official web portal to all federal, state and local government web resources and services.